Погода в Мульте

Россия / Республика Алтай     50°10′08″N   85°57′21″E
темп.,
°C
ветер,
м/с
пор.,
м/с
влажн.,
%
обл.,
%
осадки,
мм/ч
давл.,
гПа
погр.,
м
25 января, вт
вт2501:00−23всв229449 0.0 104316
04:00−25св229451 0.0 104412
07:00−26св219376 0.0 104411
10:00−25св119385 0.0 104411
13:00−19юз119153 0.0 1038114
16:00−17з11938 0.0 103662
19:00−22св229033 0.0 104010
22:00−23св218630 0.0 104110
26 января, ср
ср2601:00−23св218367 0.0 10419
04:00−23ссв1184100 0.0 10409
07:00−22ссв1185100 0.0 10409
10:00−21ссв1184100 0.0 103911
13:00−16сз1273100 0.0 1035122
16:00−14сз1276100 0.0 103387
19:00−16с1179100 0.0 103414
22:00−16с1180100 0.0 103513
27 января, чт
чт2701:00−18с1181100 0.0 103612
04:00−18с1184100 0.0 103610
07:00−19с1189100 0.0 10389
10:00−18с119798 0.1 103921
13:00−15з129172 0.1 1037264
16:00−13зсз118713 0.0 1036176
19:00−21св22935 0.0 104215
22:00−22св229243 0.0 104411
28 января, пт
пт2801:00−24св229342 0.0 104410
04:00−25св229448 0.0 104510
07:00−26св219350 0.0 104510
10:00−25св119248 0.0 104410
13:00−19зюз11907 0.0 1038117
16:00−17юз11905 0.0 103684
19:00−23всв22936 0.0 103911
22:00−24св219235 0.0 104010
29 января, сб
сб2901:00−25св218940 0.0 104010
04:00−26св218526 0.0 104110
07:00−26св218434 0.0 104210
10:00−24св118610 0.0 104110
13:00−18юз01828 0.0 103698
16:00−15юз01874 0.0 103458
19:00−21св22889 0.0 103810
22:00−21св22818 0.0 104010